Location: Newark
(41.0400°S, 62.7845°W)
Time: 00:24:53
(UTC+00:00)

STUDSAT - Visible Passes

Search period start: 11 August 2022 00:00
Search period end: 21 August 2022 00:00
Orbit: 592 x 609 km, 98.2° (Epoch: 10 August)

Date Brightness Start Highest point End Pass type
(mag) Time Alt. Az. Time Alt. Az. Time Alt. Az.
11 Aug ? 09:27:25 10° ESE 09:29:52 15° E 09:32:17 10° NE visible
11 Aug ? 21:52:57 10° N 21:57:11 61° WNW 22:01:27 10° SSW visible
12 Aug ? 09:38:11 10° SE 09:41:18 20° E 09:44:23 10° NE visible
12 Aug ? 22:04:27 10° N 22:08:32 45° W 22:12:40 10° SSW visible
13 Aug ? 09:49:07 10° SE 09:52:42 26° E 09:56:14 10° NNE visible
13 Aug ? 22:16:01 10° NNW 22:19:54 34° W 22:23:50 10° SSW visible
14 Aug ? 10:00:12 10° SSE 10:04:05 34° E 10:07:55 10° NNE visible
14 Aug ? 22:27:43 10° NNW 22:31:18 26° W 22:34:54 10° SW visible
15 Aug ? 10:11:21 10° SSE 10:15:28 45° E 10:19:30 10° N visible
15 Aug ? 22:39:34 10° NW 22:42:42 20° W 22:45:51 10° SW visible
16 Aug ? 10:22:34 10° SSE 10:26:48 62° ENE 10:30:58 10° N visible
16 Aug ? 22:51:38 10° NW 22:54:07 15° W 22:56:36 10° WSW visible
17 Aug ? 23:04:15 10° WNW 23:05:32 11° W 23:06:51 10° WSW visible
19 Aug ? 09:22:52 10° ESE 09:24:43 12° E 09:26:32 10° ENE visible
20 Aug ? 09:33:23 10° SE 09:36:08 17° E 09:38:51 10° NE visible
20 Aug ? 21:59:15 10° N 22:03:25 54° W 22:07:37 10° SSW visible
